Wind_Speed
17 18 19 19 18 19 20 21 22 22 22 21 22 22 22 21 22 22 22 22 22 23 23 24 25 25 24 25 25 25 26 27 28 28 28 29 29 29 30 30 30 31 31 31
18 18 20 19 18 19 20 21 22 22 22 22 23 23 23 23 23 22 22 23 24 24 24 25 26 26 26 26 26 27 28 28 28 28 28 29 30 30 31 32 32 32 32 32
19 19 20 20 18 20 21 22 23 24 23 23 23 23 24 24 23 24 24 24 25 25 26 26 27 27 28 27 28 29 29 30 30 30 30 30 31 32 33 33 33 33 33 33
20 19 20 19 20 20 21 22 23 23 23 23 23 24 24 24 25 25 25 26 26 26 27 27 27 28 29 29 30 30 30 31 31 31 32 32 33 33 34 34 34 33 33 33
21 21 21 20 20 21 22 22 22 23 23 24 24 24 24 25 25 26 27 27 27 27 27 28 28 29 29 30 30 31 31 32 32 32 33 34 34 34 34 33 33 32 33 34
23 23 23 21 22 22 23 22 22 22 23 24 25 25 25 25 26 27 28 28 28 28 29 29 30 30 31 31 31 32 33 33 33 34 34 35 35 34 34 34 34 34 34 34
24 25 25 24 24 24 24 24 24 24 24 24 25 26 26 26 28 28 29 30 31 30 30 31 31 32 32 32 33 33 33 33 34 35 35 35 35 36 36 36 36 36 35 35
26 27 26 25 26 26 26 26 26 26 26 26 26 26 27 27 28 29 30 31 31 31 31 32 32 33 33 33 34 34 34 35 35 35 35 36 36 36 36 36 36 36 36 36
27 27 27 26 27 27 28 28 28 28 28 28 28 28 28 28 29 30 31 32 32 32 32 32 33 33 34 34 34 34 35 36 36 37 37 37 38 38 37 37 37 37 37 37
28 28 28 28 28 29 29 30 29 29 30 30 30 30 30 30 31 31 31 32 32 32 32 33 34 34 34 35 35 35 36 37 38 38 38 38 39 39 39 38 39 39 39 38
30 30 30 30 30 30 30 30 31 31 31 31 32 32 32 32 32 32 31 32 32 32 33 34 35 36 36 36 36 37 37 38 39 40 40 39 39 39 39 38 39 39 39 39
31 31 32 31 32 32 32 31 31 32 32 32 33 33 34 34 34 33 33 33 33 34 34 35 35 35 35 36 37 37 38 38 39 39 40 40 39 39 38 38 38 38 38 38
32 32 33 32 32 33 33 33 33 33 33 33 33 34 34 34 34 34 34 34 34 34 35 35 35 35 35 36 37 37 37 38 38 39 39 39 39 38 38 38 38 37 38 38
32 33 33 33 33 33 33 33 33 33 33 33 33 33 34 34 34 34 34 34 35 35 35 35 35 35 36 36 37 37 37 37 37 38 37 37 37 38 38 38 37 37 37 37
32 33 33 33 33 33 33 33 33 33 33 33 33 33 33 33 34 34 34 34 35 36 36 36 36 36 36 36 36 36 36 37 37 37 37 37 37 37 37 37 37 36 36 36
32 33 33 33 33 33 32 32 32 33 33 33 33 33 33 33 34 34 34 35 35 36 36 36 36 36 36 36 37 37 36 36 37 37 36 36 36 36 36 36 36 35 35 35
31 31 32 32 32 32 32 32 32 32 33 33 33 33 33 33 34 34 34 34 34 35 35 35 36 36 36 37 37 37 37 37 37 36 36 35 35 36 35 35 34 33 33 33
31 31 32 32 32 31 31 31 32 32 33 34 34 34 34 34 34 34 34 35 34 34 35 35 35 35 36 36 36 36 36 36 36 36 35 35 35 35 34 34 33 33 32 32
30 30 30 30 30 31 31 31 31 32 33 34 34 34 34 34 34 34 35 35 35 34 34 34 34 34 35 35 36 35 35 35 35 35 35 34 34 34 34 34 33 33 32 31
30 30 30 30 30 30 30 31 32 32 33 33 33 33 33 33 33 34 33 33 34 34 34 34 34 35 35 35 36 35 35 35 35 35 34 34 33 33 33 32 32 32 31 31
30 30 30 29 30 30 31 31 32 32 32 33 33 33 32 32 33 33 33 33 33 33 33 34 34 35 35 35 35 34 34 34 34 34 33 32 32 31 31 30 30 30 30 30
31 31 30 30 31 31 32 32 32 32 32 32 32 32 32 32 33 33 33 33 33 33 33 33 33 34 34 34 34 34 33 33 33 32 32 31 30 31 31 31 30 30 30 30
32 31 31 31 31 32 31 31 32 32 32 32 32 32 32 32 33 33 33 33 33 33 33 33 33 33 33 33 33 33 33 32 32 31 31 31 31 31 31 31 30 29 29 29
32 32 32 32 32 32 32 32 32 33 33 33 33 33 33 33 33 33 33 32 32 33 33 32 32 32 33 33 33 32 32 32 32 32 32 31 31 31 31 30 29 28 27 27
31 31 32 32 32 32 33 33 33 34 34 34 34 34 34 34 33 33 32 32 32 32 32 32 32 33 33 33 33 33 32 32 32 32 32 31 31 31 30 30 29 28 28 27
30 30 30 31 32 33 33 34 34 34 35 34 34 34 34 34 33 33 33 33 33 32 32 32 32 32 32 33 33 32 32 32 32 32 31 30 30 29 29 28 28 28 28 27
29 29 30 30 31 32 33 33 33 33 33 33 33 33 33 33 33 33 33 32 32 32 32 32 32 32 32 32 32 32 32 32 31 30 30 29 28 28 28 28 27 27 27 27
Wind_Direction
269 271 272 271 272 273 275 278 279 281 282 283 280 280 279 278 279 280 282 283 284 283 282 284 284 283 281 281 281 282 282 282 283 284 284 283 283 283 283 282 281 280 279 278
270 270 270 271 273 275 277 277 280 282 282 282 282 282 281 281 281 281 283 284 284 284 284 285 285 283 282 283 282 283 283 283 284 283 283 282 283 284 285 284 282 280 278 278
274 272 270 273 277 277 278 279 280 281 282 283 284 283 282 280 281 282 282 285 285 286 285 285 284 283 283 283 283 283 283 283 284 283 283 282 282 283 284 284 284 282 278 278
275 272 272 277 277 279 280 281 281 282 282 283 285 284 282 280 279 281 282 283 284 285 286 286 286 285 284 283 283 283 283 284 284 283 284 284 285 286 284 283 282 281 280 279
276 275 276 276 279 281 282 284 284 284 283 282 284 284 284 283 281 281 281 282 283 284 286 285 285 285 285 285 285 284 284 285 284 284 284 284 285 287 286 284 284 283 282 281
279 279 280 281 280 282 283 285 286 287 285 284 284 284 284 283 282 282 282 282 282 284 286 287 286 286 285 286 286 286 286 286 285 285 285 284 285 285 285 285 284 284 283 282
277 279 281 282 282 282 284 286 286 287 287 286 286 286 285 285 283 283 283 283 283 283 285 286 287 286 287 286 286 287 287 287 287 286 285 284 285 285 285 284 284 284 284 283
276 277 281 283 282 283 285 285 286 287 289 289 289 287 286 286 285 284 284 285 284 284 285 285 285 285 286 286 285 285 286 287 288 287 286 284 284 284 284 284 284 284 284 284
277 279 282 283 283 283 284 285 287 288 288 289 289 289 287 286 286 285 284 285 284 284 283 285 285 285 285 286 287 286 286 287 289 288 286 285 285 285 284 284 283 285 284 284
278 279 280 281 281 282 282 284 286 287 288 288 288 289 289 287 286 285 285 285 284 284 284 285 286 287 287 287 287 288 288 288 288 288 288 286 286 285 284 284 284 285 285 284
276 278 279 279 280 281 281 283 284 286 287 288 288 289 289 288 286 285 285 284 284 285 286 286 286 287 287 287 288 288 289 289 290 290 290 288 287 287 286 285 285 285 285 285
275 276 276 277 278 279 281 282 283 284 286 287 287 288 288 287 287 286 285 285 285 286 287 287 287 288 288 288 288 289 289 290 290 290 289 288 288 287 286 286 285 285 285 285
274 274 275 276 277 278 280 282 282 283 285 286 286 286 287 287 286 286 286 286 286 287 287 287 288 289 289 289 290 290 290 291 290 290 290 289 288 287 286 286 286 286 285 285
273 274 275 275 275 277 279 281 281 283 284 285 286 287 287 287 287 287 287 287 287 288 288 288 288 289 290 290 290 291 290 290 291 292 291 291 290 288 287 287 286 285 284 284
275 274 275 275 275 276 278 280 281 282 283 284 286 287 288 288 288 288 287 287 288 288 289 289 289 290 291 291 292 291 291 291 292 291 291 290 291 291 290 288 287 286 284 284
279 278 277 277 277 276 277 279 280 281 282 284 285 287 288 288 288 288 288 288 288 288 289 289 288 290 291 292 292 292 293 293 293 292 291 291 291 291 291 290 289 288 286 285
281 280 279 278 278 278 278 278 279 280 281 283 285 286 286 286 287 287 288 288 289 289 289 290 290 290 292 292 293 293 294 294 294 293 292 290 291 291 291 291 291 289 287 287
282 282 281 280 279 279 279 279 280 281 282 282 283 285 285 285 285 286 287 288 290 291 291 290 291 291 292 293 294 294 295 295 294 294 293 291 290 290 290 291 291 290 288 287
283 283 283 282 281 280 281 281 281 282 283 284 285 285 285 285 286 287 288 288 289 290 291 291 291 292 294 294 295 295 295 294 294 294 293 291 291 290 290 290 289 288 287 285
285 284 284 284 283 283 283 284 284 284 284 285 285 286 286 286 287 288 288 289 289 290 291 292 292 293 294 295 295 295 295 294 294 294 293 292 291 291 290 288 288 287 286 285
286 286 285 284 284 284 284 284 285 285 285 285 285 286 286 287 287 288 288 289 290 291 292 293 293 294 294 294 295 295 295 295 295 294 293 291 290 290 290 289 287 287 287 287
286 285 284 283 283 284 284 285 285 285 286 286 287 287 286 287 287 288 289 290 290 291 292 292 294 295 295 295 294 295 295 295 295 294 293 291 290 291 291 290 289 289 288 287
285 284 283 283 283 283 284 284 284 285 285 287 287 287 287 288 288 289 290 291 291 291 292 293 294 295 295 295 295 295 294 294 294 294 292 291 290 290 290 290 290 290 289 286
284 284 283 283 283 282 282 284 285 285 286 287 287 288 288 288 289 290 291 291 291 292 293 293 294 295 295 295 296 295 294 293 293 292 291 291 290 290 290 290 289 288 288 287
284 284 284 283 283 282 283 283 284 284 285 286 287 287 287 288 289 289 290 291 292 292 293 293 294 295 295 296 295 295 294 294 293 292 291 291 291 291 290 289 289 288 287 286
284 284 285 285 284 284 284 284 284 285 285 286 286 286 286 287 288 289 289 290 290 291 292 293 294 294 295 295 295 294 294 294 293 292 292 291 291 290 288 288 288 287 286 284
286 287 288 288 287 286 286 286 286 286 286 287 287 287 287 288 288 289 289 290 290 291 292 293 294 294 294 294 295 296 295 295 294 293 292 292 291 289 288 287 287 287 285 284
Height
5809 5809 5808 5808 5808 5807 5806 5805 5804 5804 5802 5802 5800 5799 5798 5797 5796 5794 5793 5791 5790 5788 5787 5786 5784 5782 5781 5780 5778 5777 5776 5775 5773 5772 5770 5769 5767 5765 5764 5762 5761 5759 5758 5757
5804 5803 5803 5803 5802 5802 5801 5800 5798 5797 5797 5796 5794 5793 5791 5790 5789 5787 5786 5784 5783 5781 5780 5778 5777 5775 5774 5772 5771 5770 5768 5767 5765 5764 5762 5760 5759 5757 5755 5753 5751 5750 5748 5747
5799 5798 5797 5798 5798 5796 5795 5794 5792 5791 5791 5789 5788 5786 5785 5783 5782 5780 5779 5777 5776 5774 5773 5771 5769 5768 5767 5765 5763 5762 5760 5758 5756 5755 5753 5751 5750 5748 5746 5744 5742 5740 5738 5737
5793 5793 5792 5795 5792 5790 5788 5787 5785 5784 5783 5782 5781 5779 5778 5776 5775 5773 5772 5770 5768 5767 5765 5763 5761 5760 5758 5757 5755 5753 5751 5749 5747 5746 5744 5742 5740 5737 5735 5733 5732 5730 5728 5726
5786 5785 5785 5787 5786 5783 5781 5780 5779 5778 5776 5775 5773 5772 5770 5769 5767 5765 5763 5762 5760 5759 5757 5755 5753 5752 5750 5748 5746 5744 5742 5740 5738 5736 5734 5732 5729 5727 5725 5723 5721 5719 5717 5716
5780 5779 5779 5781 5779 5776 5776 5774 5773 5771 5769 5768 5766 5765 5764 5761 5760 5758 5756 5754 5752 5751 5749 5747 5745 5743 5741 5739 5737 5735 5733 5731 5728 5726 5724 5721 5719 5717 5714 5712 5710 5709 5707 5705
5773 5772 5772 5773 5771 5770 5770 5769 5766 5763 5762 5760 5758 5757 5755 5753 5751 5749 5748 5746 5744 5742 5740 5738 5736 5734 5732 5730 5728 5725 5723 5721 5718 5716 5713 5711 5709 5707 5704 5702 5700 5698 5697 5695
5766 5765 5767 5765 5763 5763 5761 5759 5758 5756 5754 5752 5750 5748 5746 5744 5742 5740 5739 5737 5735 5733 5731 5729 5727 5725 5723 5720 5718 5716 5713 5711 5708 5705 5703 5700 5698 5696 5694 5691 5690 5688 5686 5684
5760 5760 5758 5756 5755 5753 5752 5751 5749 5747 5746 5744 5741 5739 5737 5735 5733 5731 5730 5728 5725 5723 5721 5719 5717 5715 5713 5710 5708 5706 5703 5701 5698 5695 5692 5689 5687 5685 5683 5681 5679 5677 5675 5673
5750 5750 5749 5747 5746 5744 5743 5741 5740 5738 5736 5734 5732 5730 5728 5726 5724 5722 5720 5718 5716 5714 5711 5709 5707 5705 5702 5700 5698 5695 5693 5690 5687 5684 5681 5678 5675 5673 5671 5669 5667 5665 5663 5661
5741 5741 5739 5738 5737 5735 5734 5733 5731 5729 5727 5725 5723 5721 5719 5717 5715 5713 5711 5709 5706 5704 5702 5700 5697 5694 5692 5690 5687 5685 5682 5679 5676 5672 5669 5666 5664 5661 5658 5656 5654 5652 5650 5648
5733 5732 5730 5729 5728 5726 5725 5723 5722 5720 5719 5716 5714 5712 5710 5707 5705 5703 5701 5699 5697 5694 5692 5690 5687 5684 5682 5679 5676 5673 5671 5668 5664 5661 5658 5654 5652 5649 5646 5644 5642 5639 5637 5635
5722 5721 5720 5719 5718 5716 5715 5714 5712 5711 5709 5707 5704 5702 5700 5697 5695 5693 5691 5689 5686 5684 5682 5679 5677 5674 5671 5668 5665 5662 5659 5656 5652 5649 5646 5643 5640 5637 5635 5632 5630 5627 5625 5623
5712 5711 5710 5709 5708 5706 5705 5704 5702 5701 5699 5697 5695 5692 5690 5688 5685 5683 5681 5679 5676 5674 5671 5669 5666 5663 5660 5657 5654 5651 5648 5644 5641 5638 5634 5631 5628 5625 5622 5620 5618 5616 5613 5611
5702 5701 5700 5699 5697 5696 5695 5694 5692 5691 5689 5687 5685 5683 5680 5678 5675 5673 5670 5668 5666 5663 5660 5658 5655 5652 5649 5646 5643 5640 5637 5634 5630 5627 5623 5620 5616 5613 5610 5608 5606 5604 5602 5600
5692 5690 5689 5688 5687 5685 5684 5683 5682 5680 5678 5677 5675 5672 5670 5668 5665 5663 5660 5658 5655 5653 5650 5647 5645 5642 5639 5636 5633 5630 5626 5623 5619 5616 5612 5609 5606 5603 5600 5597 5594 5592 5590 5588
5682 5680 5679 5678 5677 5675 5674 5672 5671 5670 5668 5666 5664 5662 5660 5658 5655 5653 5650 5647 5645 5642 5639 5636 5634 5631 5628 5625 5622 5619 5615 5612 5608 5605 5602 5598 5595 5592 5589 5586 5583 5581 5579 5577
5672 5671 5669 5667 5666 5665 5664 5662 5661 5659 5658 5656 5654 5652 5650 5647 5645 5643 5640 5637 5634 5631 5629 5626 5623 5620 5617 5614 5611 5608 5605 5601 5597 5594 5591 5588 5585 5582 5579 5576 5573 5571 5569 5566
5662 5661 5659 5658 5656 5655 5654 5652 5651 5649 5647 5645 5644 5641 5639 5637 5634 5632 5629 5626 5624 5621 5618 5615 5612 5609 5607 5604 5601 5597 5594 5591 5587 5584 5580 5577 5574 5571 5568 5566 5563 5561 5559 5557
5653 5651 5650 5648 5647 5645 5644 5642 5641 5639 5637 5635 5633 5631 5628 5626 5624 5621 5618 5616 5613 5610 5608 5605 5602 5599 5596 5593 5590 5587 5584 5580 5577 5574 5570 5567 5564 5561 5558 5556 5553 5551 5549 5547
5644 5642 5640 5639 5637 5636 5634 5632 5630 5629 5627 5625 5622 5620 5618 5615 5613 5610 5608 5606 5603 5600 5597 5595 5592 5589 5586 5582 5579 5576 5573 5570 5567 5563 5560 5557 5554 5552 5549 5546 5544 5542 5540 5538
5634 5632 5631 5629 5628 5626 5624 5622 5620 5618 5616 5614 5612 5609 5607 5605 5602 5600 5597 5595 5592 5589 5587 5584 5581 5578 5575 5572 5569 5566 5563 5560 5557 5553 5550 5548 5545 5542 5540 5537 5535 5533 5531 5529
5624 5622 5620 5619 5617 5616 5614 5612 5610 5608 5606 5604 5601 5599 5597 5594 5592 5590 5588 5585 5582 5579 5577 5574 5571 5568 5565 5562 5559 5556 5553 5550 5547 5544 5541 5538 5535 5533 5530 5528 5526 5523 5521 5520
5613 5612 5610 5608 5607 5605 5604 5602 5600 5598 5596 5593 5591 5589 5586 5584 5582 5580 5577 5574 5572 5569 5566 5563 5561 5558 5555 5552 5549 5546 5543 5540 5537 5534 5531 5528 5526 5523 5521 5518 5516 5514 5512 5511
5603 5601 5600 5598 5596 5595 5593 5591 5589 5587 5584 5582 5580 5578 5576 5573 5571 5569 5567 5564 5562 5559 5556 5554 5551 5548 5545 5542 5539 5536 5533 5530 5527 5524 5521 5519 5516 5514 5511 5509 5507 5505 5504 5502
5593 5591 5589 5588 5586 5584 5582 5580 5578 5576 5573 5571 5569 5567 5565 5563 5561 5559 5556 5554 5551 5549 5546 5544 5541 5538 5535 5532 5529 5526 5523 5520 5517 5514 5511 5509 5507 5504 5502 5500 5498 5496 5495 5493
5584 5582 5580 5578 5575 5573 5571 5569 5567 5565 5562 5560 5559 5557 5555 5552 5550 5548 5546 5543 5541 5539 5536 5534 5531 5528 5525 5522 5519 5516 5513 5510 5507 5504 5502 5499 5497 5495 5493 5491 5489 5488 5486 5485